Regional Weather Roundup
Issued by NWS Lake Charles, LA

Home | Current Version | Previous Version | Text Only | Print | Product List | Glossary On
Versions: 1 2 3 4 5 6 7 8 9 10 11 12 13 14 15 16 17 18 19 20 21 22 23 24 25 26 27 28 29 30 31 32 33 34 35 36 37 38 39 40 41 42 43 44 45 46 47 48 49 50
000
ASUS44 KLCH 041310
RWRLCH
RWRLCH
REGIONAL WEATHER ROUNDUP
NATIONAL WEATHER SERVICE LAKE CHARLES LA
700 AM CST WED MAR 04 2015

Note: "fair" indicates few or no clouds below 12,000 feet with no
significant weather and/or obstructions to visibility.


ACROSS SOUTHEAST TEXAS

CITY           SKY/WX    TMP DP  RH WIND       PRES   REMARKS
BEAUMONT       CLOUDY    67  65  93 S5        29.90R FOG
BEAUMONT CITY  CLOUDY    67  67  97 S7        29.91R
ORANGE         CLOUDY    67  66  96 S5        29.93R
JASPER         CLOUDY    68  65  92 S3        29.93R
$$

ACROSS CENTRAL LOUISIANA

CITY           SKY/WX    TMP DP  RH WIND       PRES   REMARKS
LEESVILLE      CLOUDY    68  66  94 S9        29.92R
FULLERTON      CLOUDY    71  66  84 CALM      29.91R
ALEXANDRIA INT CLOUDY    65  65 100 CALM      29.93R FOG
ESLER FIELD    CLOUDY    69  66  90 S5        29.94R
DERIDDER       CLOUDY    68  67  96 CALM      29.94S
OAKDALE        CLOUDY    68  67  94 CALM      29.94R
OPELOUSAS      CLOUDY    67  66  97 SE3       29.95R FOG
$$

ACROSS SOUTHWEST AND SOUTH CENTRAL LOUISIANA

CITY           SKY/WX    TMP DP  RH WIND       PRES   REMARKS
SULPHUR        CLOUDY    66  66 100 CALM      29.93R FOG
LAKE CHARLES   CLOUDY    65  65 100 CALM      29.92R FOG
CHENNAULT INT  FOG       64  64 100 SE5       29.93R VSB 1/2
CAMERON PHI    NOT AVBL
DEQUINCY       NOT AVBL
JENNINGS       CLOUDY    67  66  99 S3        29.94R
LAFAYETTE      MOCLDY    66  65  96 S6        29.95R
NEW IBERIA     FOG       65  64  97 SE8       29.95S VSB 1/16
ABBEVILLE      NOT AVBL
PATTERSON      CLOUDY    64  64 100 SE3       29.96S VSB 1/4
SALT POINT       N/A     65  65 100 SE6       29.95S
$$

SELECTED SITES ACROSS THE REGION

CITY           SKY/WX    TMP DP  RH WIND       PRES   REMARKS
HOUSTON BUSH   CLOUDY    70  67  90 S7        29.88R FOG
HOUSTON HOBBY  CLOUDY    69  67  93 S7        29.88R
GALVESTON      FOG       64  64 100 SE9       29.89S VSB 1/2
COLLEGE STAT   CLOUDY    66  65  96 SE5       29.85S FOG
CONROE         CLOUDY    68  66  93 SE5       29.88S FOG
HUNTSVILLE     CLOUDY    68  66  93 S5        29.87R FOG
LUFKIN         CLOUDY    68  65  90 SE5       29.89R FOG
SHREVEPORT     FOG       64  64 100 CALM      29.87F VSB 1
MONROE         CLOUDY    66  65  96 S5        29.92R
NATCHEZ MS     CLOUDY    66  64  94 S10       29.96S
BATON ROUGE    MOCLDY    68  67  96 SE7       29.97R FOG
N.O. INTL ARPT MOCLDY    69  66  90 S3        29.99R
SLIDELL        LGT RAIN  67  67 100 CALM      30.00R
$$

MARINE REPORTS

STATION/POSITION TIME  TEMP    WIND        PRES    VSBY  WAVE
                       AIR SEA DIR/SP/G                  HT/PER
                 (UTC) (F)     (DEG/KT/KT) (MB)    (MI)  (FT/S)
BUOY 30 S HIGH I 1300   63 60  140/  4/  6 1011.8R         3/ 6
SEA RIM ST PARK  1300   64     140/  5/  7 1013.1R
PORT ARTHUR      1300      56  180/  4/  7 1012.7R
SABINE PASS N    1300   62 56  150/  6/  8 1012.5R
TEXAS POINT      NOT AVBL
CALCASIEU PASS   1300   63 57  140/  5/  7   N/A
LK CHARLES BEACH 1300   67 61              1013.4R
MARSH ISLAND     1200   65     150/ 11/ 12   N/A           2
FRESH WATER LOCK 1300   64 63  120/  8/ 11 1013.8R
AMERADA PASS     1300   63 51  130/  4/  6 1014.5R
$$


USA.gov is the U.S. government's official web portal to all federal, state and local government web resources and services.